Location: Blackrock Ranger Station
(36.0936°N, 118.2611°W)
Time: 05:02:41
(UTC-08:00)

ARIANE 6 FM1 Upper Stage - Visible Passes

Search period start: 13 December 2025 00:00
Search period end: 23 December 2025 00:00
Orbit: 522 x 611 km, 62.0° (Epoch: 12 December)

Date Brightness Start Highest point End Pass type
(mag) Time Alt. Az. Time Alt. Az. Time Alt. Az.
13 Dec 6.2 04:55:34 10° ESE 04:56:05 10° ESE 04:56:37 10° ESE visible
14 Dec 5.6 04:53:44 10° SSE 04:56:20 17° ESE 04:58:55 10° ENE visible
15 Dec 4.8 04:53:13 10° S 04:56:37 26° ESE 04:59:58 10° ENE visible
16 Dec 3.8 04:53:04 10° S 04:56:54 41° ESE 05:00:41 10° NE visible
17 Dec 2.8 04:56:30 53° S 04:57:14 67° ESE 05:01:13 10° NE visible
18 Dec 3.3 04:58:51 42° NNE 04:58:51 42° NNE 05:01:35 10° NNE visible
19 Dec 4.5 05:00:33 19° NNE 05:00:33 19° NNE 05:01:50 10° NNE visible
20 Dec 5.1 05:01:49 11° NNE 05:01:49 11° NNE 05:01:57 10° NNE visible
